866  
ASUS44 KMAF 161310  
RWRMAF  
MIDLAND AREA WEATHER ROUNDUP  
NATIONAL WEATHER SERVICE MIDLAND TX  
800 AM CDT SAT OCT 16 2021  
   
..IN SOUTHWEST TEXAS AND SOUTHEAST NEW MEXICO
 
 
 
CITY SKY/WX TMP DP RH WIND PRES REMARKS
 
ALPINE CLEAR 46 31 56 CALM 30.48R  
ANDREWS FAIR 38 30 70 N3 30.43S  
ARTESIA CLEAR 37 25 60 W3 30.45R  
BIG SPRING CLEAR 41 31 68 CALM 30.42R  
CARLSBAD CLEAR 42 27 55 S7 30.41R WCI 38  
DRYDEN N/A 51 38 60 N3 30.43R  
FORT STOCKTON CLEAR 49 34 56 SE8 30.42R  
GUAD PASS CLEAR 44 30 57 NE33 30.39F WCI 33  
HOBBS CLEAR 37 28 70 CALM 30.43R  
LAMESA NOT AVBL  
MARFA CLEAR 40 29 64 N7 30.45R WCI 35  
MIDLAND AIRPK CLEAR 42 30 64 CALM 30.43R  
MIDLAND INTL CLEAR 39 30 70 N6 30.42R WCI 35  
ODESSA CLEAR 40 28 62 E9 30.42R WCI 34  
PECOS CLEAR 44 27 51 N5 30.43R  
PRESIDIO FAIR 58 35 41 NE13G18 30.37R  
SEMINOLE CLEAR 34 28 79 W3 30.48R  
SNYDER CLEAR 42 32 69 N7 30.42S WCI 37  
WINK CLEAR 38 26 62 N6 30.42R WCI 33  

   
..OTHER STATIONS IN TEXAS
 
 
 
CITY SKY/WX TMP DP RH WIND PRES REMARKS
 
ABILENE CLEAR 45 39 79 CALM 30.40R  
AMARILLO CLEAR 37 28 70 SW8 30.40R WCI 31  
AUSTIN PTCLDY 57 44 62 N10 30.33R  
BROWNSVILLE CLOUDY 73 67 81 N12 30.15R  
CORPUS CHRISTI MOCLDY 65 51 60 N16G26 30.23R  
DALLAS FTW CLEAR 52 44 74 NW9 30.33R  
DEL RIO PTCLDY 59 44 57 NW5 30.38R  
EL PASO CLEAR 50 26 39 N6 30.36R  
HOUSTON INT PTCLDY 62 46 55 N10 30.27R  
LUBBOCK CLEAR 35 28 75 NW3 30.43R  
SAN ANGELO CLEAR 40 37 89 S6 30.40R WCI 36  
SAN ANTONIO PTCLDY 57 43 59 N9 30.33R  
WACO CLEAR 47 44 90 W3 30.34R  
WICHITA FALLS CLEAR 37 34 89 E3 30.34R  

   
..OTHER LOCATIONS IN NEW MEXICO
 
 
 
CITY SKY/WX TMP DP RH WIND PRES REMARKS
 
ALAMOGORDO CLEAR 36 16 44 E5 30.39S WCI 32  
ALBUQUERQUE CLEAR 38 17 42 N5 30.42R WCI 34  
CANNON AFB CLEAR 36 27 70 NW8 30.43R WCI 30  
CLOVIS CLEAR 33 27 78 W9 30.45R WCI 25  
HOLLOMAN AFB CLEAR N/A N/A N/A CALM N/A  
ROSWELL CLEAR 38 25 59 SW5 30.42R WCI 34  
RUIDOSO CLEAR 36 19 51 CALM 30.47R  
SANTA FE CLEAR 31 15 52 N10 30.43R WCI 22  
TRUTH OR CONSE CLEAR 40 16 37 NW3 30.39R  
TUCUMCARI CLEAR 41 29 62 W8 30.40R WCI 36  

 
 
 
CLICK HERE TO GO TO PREVIOUS BULLETINS.

The Nexlab TX Page
The Nexlab NM Page Main Text Page